GW2424 Weather Reports


Display with metric or nautical units.
time (UTC)temp
F
wind
direction
speed
MPH
gust
MPH
rain 1hr
in
rain 24hr
in
rain mn
in
humidity
%
barometer
mb
20260504034547 53 40 7.0 9.0 0.00 0.00 0.00 44 1011.3
20260504033051 53 54 6.0 9.0 0.00 0.00 0.00 44 1011.0
20260504031551 53 53 7.0 10.0 0.00 0.00 0.00 44 1010.9
20260504030054 54 49 8.0 12.0 0.00 0.00 0.00 43 1010.7
20260504024604 54 48 8.0 13.0 0.00 0.00 0.00 43 1010.5
20260504023057 56 53 8.0 15.0 0.00 0.00 0.00 41 1010.3
20260504021554 58 43 11.0 20.0 0.00 0.00 0.00 39 1010.0
20260504020050 60 34 11.0 19.0 0.00 0.00 0.00 35 1009.9
20260504014548 63 41 11.0 16.0 0.00 0.00 0.00 30 1009.7
20260504013054 65 8 9.0 15.0 0.00 0.00 0.00 27 1009.7
20260504011550 67 322 6.0 10.0 0.00 0.00 0.00 23 1009.7
20260504010047 68 307 4.0 11.0 0.00 0.00 0.00 21 1009.7
20260504004547 68 329 5.0 18.0 0.00 0.00 0.00 21 1009.8
20260504003053 68 314 6.0 15.0 0.00 0.00 0.00 20 1010.0
20260504001552 69 324 7.0 12.0 0.00 0.00 0.00 20 1010.1
20260504000116 69 345 9.0 17.0 0.00 0.00 0.00 20 1010.2
20260503234557 69 337 9.0 17.0 0.00 0.00 0.00 21 1010.1
20260503233047 69 307 7.0 16.0 0.00 0.00 0.00 21 1010.3
20260503231548 69 309 6.0 12.0 0.00 0.00 0.00 21 1010.5
20260503230051 69 299 9.0 15.0 0.00 0.00 0.00 21 1010.7
20260503224552 69 315 5.0 15.0 0.00 0.00 0.00 21 1010.8
20260503223051 69 277 9.0 15.0 0.00 0.00 0.00 20 1010.7
20260503221558 69 302 8.0 14.0 0.00 0.00 0.00 22 1011.1
20260503220057 68 320 7.0 15.0 0.00 0.00 0.00 21 1011.3
20260503214553 68 262 6.0 16.0 0.00 0.00 0.00 22 1011.5
20260503213052 67 13 6.0 17.0 0.00 0.00 0.00 23 1011.8
20260503211601 67 288 9.0 18.0 0.00 0.00 0.00 23 1012.0
20260503210052 67 316 9.0 21.0 0.00 0.00 0.00 24 1012.1
20260503204551 67 311 8.0 16.0 0.00 0.00 0.00 23 1012.2
20260503203107 67 318 7.0 15.0 0.00 0.00 0.00 24 1012.3
20260503201554 67 310 6.0 16.0 0.00 0.00 0.00 24 1012.3
20260503200048 66 294 6.0 13.0 0.00 0.00 0.00 23 1012.5
20260503194555 66 290 6.0 16.0 0.00 0.00 0.00 24 1012.7
20260503193053 66 297 11.0 19.0 0.00 0.00 0.00 24 1013.0
20260503191551 66 343 7.0 17.0 0.00 0.00 0.00 25 1013.4
20260503190050 65 311 7.0 16.0 0.00 0.00 0.00 26 1013.4
20260503184550 65 290 5.0 10.0 0.00 0.00 0.00 27 1013.4
20260503183052 63 308 6.0 13.0 0.00 0.00 0.00 29 1013.7
20260503181604 62 297 3.0 12.0 0.00 0.00 0.00 30 1013.8
20260503180052 63 302 5.0 14.0 0.00 0.00 0.00 28 1013.9
20260503174552 63 290 5.0 11.0 0.00 0.00 0.00 29 1014.1
20260503173057 62 303 5.0 10.0 0.00 0.00 0.00 31 1014.5
20260503171549 61 312 5.0 12.0 0.00 0.00 0.00 32 1014.4
20260503081549 47 150 4.0 8.0 0.00 0.00 0.00 66 1016.1
20260503071600 48 171 7.0 9.0 0.00 0.00 0.00 65 1016.3
20260503060107 46 156 5.0 7.0 0.00 0.00 0.00 67 1016.5
20260503054549 46 145 3.0 5.0 0.00 0.00 0.00 68 1016.8
20260503053053 45 172 2.0 7.0 0.00 0.00 0.00 70 1016.8
20260503051553 45 157 3.0 6.0 0.00 0.00 0.00 69 1016.8
20260503050051 45 172 2.0 6.0 0.00 0.00 0.00 70 1016.9
20260503044551 46 171 4.0 7.0 0.00 0.00 0.00 69 1017.0
20260503043055 46 165 5.0 6.0 0.00 0.00 0.00 69 1017.1
20260503041553 48 155 3.0 6.0 0.00 0.00 0.00 64 1016.9
20260503040052 50 214 4.0 8.0 0.00 0.00 0.00 60 1016.9